Welcome to the New NWS' Forecast!
Most changes are behind the scenes, but click here for differences you might notice.

Regional Weather Roundup (RWR)

Issued by National Weather Service (NWS)

                            
550 
ASUS42 KFFC 250610
RWRGA 
WEATHER ROUNDUP FOR GEORGIA
NATIONAL WEATHER SERVICE PEACHTREE CITY GA
200 AM EDT SUN JUN 25 2017

NOTE: "FAIR" INDICATES FEW OR NO CLOUDS BELOW 12,000 FEET WITH NO
SIGNIFICANT WEATHER AND/OR OBSTRUCTIONS TO VISIBILITY. 

* = USE WITH CAUTION. THE STATIONS MARKED WITH AN ASTERISK MAY NOT
REPORT WEATHER SUCH AS PRECIPITATION, FOG, OR THUNDER AND ARE NOT 
QUALITY CONTROLLED BY NWS.

THE REMARK "TC" DENOTES TEMPERATURE READING IN DEGREES CELSIUS.

GAZ001>058-250700-
NORTH GEORGIA
  
CITY           SKY/WX    TMP DP  RH WIND       PRES   REMARKS
ATLANTA        MOCLDY    72  70  93 NW7       30.09F                  
6HR MIN TEMP:  71; 6HR MAX TEMP:  80; 6HR PCP:  0.12;                

ATHENS         CLOUDY    71  71 100 CALM      30.07F                  
6HR MIN TEMP:  70; 6HR MAX TEMP:  73; 6HR PCP:  1.18;                

CHAMBLEE       CLEAR     71  67  87 CALM      30.09F                  
6HR MIN TEMP:  70; 6HR MAX TEMP:  82; 6HR PCP:  0.02;                

PEACHTREE CITY PTCLDY    72  72 100 CALM      30.09F                  
6HR MIN TEMP:  72; 6HR MAX TEMP:  77; 6HR PCP:  0.18;                

ROME           CLEAR     71  65  81 N5        30.11S                  
6HR MIN TEMP:  70; 6HR MAX TEMP:  84;                                

WEST ATLANTA   CLEAR     73  69  87 CALM      30.09S                  
6HR MIN TEMP:  73; 6HR MAX TEMP:  83; 6HR PCP: TRACE;                

GAINESVILLE    PTCLDY    71  69  93 NW5       30.11S                  
6HR MIN TEMP:  69; 6HR MAX TEMP:  72; 6HR PCP: TRACE;                

CARTERSVILLE   CLEAR     69  67  93 CALM      30.11S                  
6HR MIN TEMP:  68; 6HR MAX TEMP:  81; 6HR PCP: TRACE;                


  
CITY           SKY/WX    TMP DP  RH WIND       PRES   REMARKS
DALTON*        PTCLDY    66  63  88 NW3       30.12F                  
MARIETTA       PTCLDY    71  66  85 NW8       30.09F                  
CANTON*        CLEAR     70  68  94 NW6       30.12S                  
$$

GAZ059>098-102>109-250700-
CENTRAL GEORGIA
  
CITY           SKY/WX    TMP DP  RH WIND       PRES   REMARKS
AUGUSTA-BUSH   MOCLDY    76  72  87 CALM      30.03R                  
6HR MIN TEMP:  76; 6HR MAX TEMP:  79;                                

AUGUSTA-DANIEL CLOUDY    75  67  76 N6        30.05R                  
6HR MIN TEMP:  75; 6HR MAX TEMP:  80;                                

COLUMBUS       CLEAR     75  73  93 NW5       30.06F                  
6HR MIN TEMP:  75; 6HR MAX TEMP:  80; 6HR PCP:  0.03;                

MACON          CLOUDY    77  75  93 SE3       30.06S                  
6HR MIN TEMP:  76; 6HR MAX TEMP:  79; 6HR PCP: TRACE;                

ROBINS AFB     CLOUDY    77  76  98 CALM      30.05S                  

  
CITY           SKY/WX    TMP DP  RH WIND       PRES   REMARKS
LAGRANGE*      CLEAR     74  73  98 CALM      30.09S                  
SYLVANIA*      MOCLDY    76  76 100 CALM      30.08R                  
MILLEDGEVILLE* CLOUDY    72  72 100 CALM      30.06F                  
$$

GAZ099>101-110>166-250700-
SOUTH GEORGIA
  
CITY           SKY/WX    TMP DP  RH WIND       PRES   REMARKS
SAVANNAH       CLEAR     80  73  79 CALM      30.05F                  
6HR MIN TEMP:  79; 6HR MAX TEMP:  90;                                

VALDOSTA       CLEAR     76  74  93 CALM      30.08S                  
6HR MIN TEMP:  75; 6HR MAX TEMP:  85; 6HR PCP: TRACE;                

ALMA           CLEAR     79  74  84 SW5       30.06F                  
6HR MIN TEMP:  78; 6HR MAX TEMP:  89;                                

ST SIMONS      CLEAR     81  74  79 SW8       30.06F                  
6HR MIN TEMP:  81; 6HR MAX TEMP:  84;                                

FT STEWART     PTCLDY    79  74  87 CALM      30.03F                  
ALBANY         CLOUDY    76  75  97 NW5       30.08F                  
HUNTER AFB     CLEAR     80  76  89 CALM      30.03F                  
MOODY AFB      CLEAR     78  73  86 SW9       30.06F                  
BRUNSWICK      CLEAR     81  75  83 SW6       30.07F                  

  
CITY           SKY/WX    TMP DP  RH WIND       PRES   REMARKS
BAINBRIDGE*    MOCLDY    81  77  89 W3        30.08S                  
MOULTRIE*      CLOUDY    79  73  83 W5        30.09S                  
VIDALIA*       CLOUDY    79  77  94 NE3       30.07F                  
WAYCROSS*      CLEAR     79  79 100 CALM      30.07S                  
DOUGLAS*       CLEAR     79  73  83 SW6       30.08F                  
$$